Location: *
(46.1333°S, 161.2167°W)
Time: 10:40:48
(UTC+00:00)

Cosmos 2298 Rocket - Pass Details

Date: 31 October 2020
Orbit: 777 x 783 km, 74.0° (Epoch: 25 November)

Event Time Altitude Azimuth Distance (km) Brightness Sun altitude
Exits shadow 12:14:55 20° 253° (WSW) 1,787 5.8 -24.9°
Maximum altitude 12:16:17 22° 232° (SW) 1,701 5.8 -24.8°
Drops below altitude 10° 12:20:24 10° 183° (S) 2,377 7.3 -24.5°
Sets 12:23:23 0° 167° (SSE) 3,313 8.5 -24.2°
